Location: Lawrence Hall of Science
(37.8785°N, 122.2415°W)
Time: 08:15:49
(UTC-08:00)

Cosmos 1461 - Visible Passes

Search period start: 04 December 2016 00:00
Search period end: 14 December 2016 00:00
Orbit: 526 x 649 km, 65.0° (Epoch: 04 December)

Date Brightness Start Highest point End Pass type
(mag) Time Alt. Az. Time Alt. Az. Time Alt. Az.
04 Dec 6.5 06:26:33 10° SE 06:28:49 14° ESE 06:31:03 10° ENE visible
05 Dec 5.8 06:32:14 10° SSE 06:35:47 24° ESE 06:39:14 10° ENE visible
06 Dec 4.5 06:38:40 10° S 06:42:48 43° ESE 06:46:48 10° NE visible
08 Dec 6.4 05:16:41 10° SE 05:18:18 12° ESE 05:19:54 10° E visible
09 Dec 5.6 05:21:57 10° SSE 05:25:14 21° ESE 05:28:26 10° ENE visible
10 Dec 4.5 05:28:14 10° S 05:32:14 36° ESE 05:36:07 10° NE visible
11 Dec 3.3 05:34:58 10° SSW 05:39:18 67° ESE 05:43:28 10° NE visible
12 Dec 2.8 05:42:05 10° SW 05:46:24 68° WNW 05:50:35 10° NNE visible
13 Dec 5.6 04:15:03 18° ESE 04:15:03 18° ESE 04:17:35 10° ENE visible
13 Dec 3.3 05:51:42 25° WSW 05:53:35 39° NW 05:57:30 10° NNE visible
